BPA-2/SL-24 R/B

Satellite information

Favourite Embed

Satellite Type and Status

ROCKET BODYIN ORBIT

Key statistics

Satellite BPA-2/SL-24 R/B at a glance.

Uptime

5011

Days in orbit

Revolutions

≈ 13.7

Per day

Orbit

SSO

Sun Synchronous Orbit

Inclination

98.2

Latest

Satellite identification and parameters

Extended collection of information and parameters for BPA-2/SL-24 R/B.

Object identification

Identified? True

Debris? False

Object name: BPA-2/SL-24 R/B

International designator: 2011-044H

Object number (NORAD): 37795

Object ID (CCSDS): 37795

Country: UKRAINE (UKR)

Current information (Y/N): Y

RCS size: LARGE

Orbital parameters

Period: 104.947 minutes

Inclination: 98.1829 deg

SMA: 7370.105 km

Apoapsis: 1292.332 km

Periapsis: 691.607 km

RAAN: 278.1964 deg

Eccentricy: 0.0407542

Argument of periapsis: 310.9922 deg

Mean anomaly: 55.6881 deg

Mean motion: 13.72120578 rev/day

Mean motion (dot): 0.00000021 rev/day2

B* drag term: 0.00003615 1/REarth

Two-line elements (TLE)

Creation date: May 6, 2025, 3:54 a.m.

Reference frame: TEME

Reference center: EARTH

Epoch: May 5, 2025, 3:36 p.m. UTC

TLE line 0: 0 BPA-2/SL-24 R/B

TLE line 1: 1 37795U 11044H 25125.65027619 .00000021 00000-0 36150-4 0 9994

TLE line 2: 2 37795 98.1829 278.1964 0407542 310.9922 55.6881 13.72120578686947

Live tracking on map

Real-time ground track for satellite BPA-2/SL-24 R/B.

In-orbit conjunctions

A list of the most updated potential collisions computed for object BPA-2/SL-24 R/B.

Target Orbit TCA Probability of collision Miss distance Type
OV1-20/OV1-21 DEB LEO 2025-03-30 03:11:54 0.0002680281 805.0 (m) DEBRIS
COSMOS 2251 DEB LEO 2024-12-25 03:52:04 0.0001618801 82.0 (m) DEBRIS
SL-14 DEB LEO 2024-11-11 09:22:23 0.0001211708 563.0 (m) DEBRIS
NOAA 17 DEB SSO 2024-09-27 21:43:28 0.0002393461 471.0 (m) DEBRIS
COSMOS 1275 DEB LEO 2024-08-11 14:38:49 0.0001367427 325.0 (m) DEBRIS

Associated space launch

BPA-2/SL-24 R/B was lifted into orbit during the mission ‘Dnepr 1 | Sich-2’, on board a Dnepr space rocket.

The launch took place on Aug. 17, 2011, 7:12 a.m. from 370/13.

For more information about the launch, click the button.

Launch to space Dnepr 1 | Sich-2
Dnepr 1 | Sich-2

Agency: N/A

Status: Launch Successful

Launch date: Aug. 17, 2011, 7:12 a.m. UTC

Rocket: Dnepr

Launch pad: 370/13

Location: Dombarovskiy, Russian Federation

...

Latest news about this satellite

There are no fresh news available about this satellite. Check back as we update our databases every day.


Newsletter sign-up

Weekly statistics, charts and insights to help you stay on top of the space industry.